AirNav   BOSE ProFlight Aviation Headset
 
 1070 users online  

4C3 Yalesville Heliport
Yalesville, Connecticut, USA

GOING TO YALESVILLE?


FAA INFORMATION EFFECTIVE 24 MAY 2018

Location

FAA Identifier: 4C3
Lat/Long: 41-29-30.8000N / 072-48-40.2000W
41-29.513333N / 072-48.670000W
41.4918889 / -72.8111667
(estimated)
Elevation: 65 ft. / 20 m (estimated)
Variation: 14W (2000)
From city: 2 miles N of YALESVILLE, CT
Time zone: UTC -4 (UTC -5 during Standard Time)
Zip code: 06492

Heliport Operations

Heliport use: Open to the public
Activation date: 06/2002
Control tower: no
ARTCC: BOSTON CENTER
FSS: BRIDGEPORT FLIGHT SERVICE STATION
NOTAMs facility: BDR (NOTAM-D service available)
Attendance: SATURDAY 0900-1600 LOCAL, ALL MON-FRI 08:30 TO 17:00 LOCAL
Wind indicator: lighted
Segmented circle: no
Lights: PCL 123.50
Beacon: white-green-yellow (heliport)
ACTVT ROTG BCN - 123.50.

Heliport Communications

CTAF/UNICOM: 123.05
WX ASOS at MMK (1.3 nm NW): 134.925 (203-639-9405)
WX ASOS at HVN (14 nm S): PHONE 203-466-6205
WX AWOS-3PT at OXC (15 nm W): 132.975 (203-262-1190)
WX AWOS-3 at SNC (15 nm SE): 118.325 (860-526-1551)
WX ASOS at HFD (16 nm NE): PHONE 860-527-5837

Nearby radio navigation aids

VOR radial/distance  VOR name  Freq  Var
MADr346/11.9MADISON VOR/DME110.4013W
HVNr027/14.2NEW HAVEN VOR/DME109.8013W
HFDr246/14.8HARTFORD VOR/DME114.9013W
BDRr047/24.4BRIDGEPORT VOR/DME108.8012W
CCCr012/33.7CALVERTON VOR/DME117.2013W
GONr300/35.5GROTON VOR/DME110.8514W
ORWr278/36.7NORWICH VOR/DME110.0014W
CMKr082/36.9CARMEL VOR/DME116.6012W
PWLr127/39.1PAWLING VOR/DME114.3012W

 
NDB name  Hdg/Dist  Freq  Var  ID
CLERA078/15.136214WJWE .--- .-- .

Heliport Services

Fuel available: 100LL JET-A
CALL IN ADVANCE FOR FUEL 203-294-8800
Parking: hangars and tiedowns
Airframe service: MAJOR
Powerplant service: MAJOR
Bottled oxygen: NONE
Bulk oxygen: NONE

Runway Information

Helipad H1

Dimensions: 65 x 65 ft. / 20 x 20 m
Surface: concrete, in good condition
Traffic pattern: leftleft
Markings: basic, in fair condition

Heliport Ownership and Management from official FAA records

Ownership: Privately-owned
Owner: UNITED CONCRETE PRODUCTS
173 CHURCH STREET, ATTEN: JONATHAN GAVIN
YALESVILLE, CT 06492
Phone 203-269-3119
Manager: ANDREW HAYDEN
AIROCEAN AVIATION, LLC, , 120 CHURCH STREET
YALESVILLE, CT 06492
Phone 203-294-8800

Heliport Operational Statistics

Aircraft operations: avg 62/month *
67% transient general aviation
33% air taxi
* for 12-month period ending 30 September 2015

Additional Remarks

PILOTS UNFAMILIAR WITH HELIPORT CONTACT 203-294-8800 PRIOR TO ARRIVAL FOR A BRIEFING ON CURRENT PROCEDURES.

Instrument Procedures

There are no published instrument procedures at 4C3.

Some nearby airports with instrument procedures:

KMMK - Meriden Markham Municipal Airport (1 nm NW)
4B8 - Robertson Field Airport (12 nm N)
KHVN - Tweed-New Haven Airport (14 nm S)
KOXC - Waterbury-Oxford Airport (15 nm W)
KSNC - Chester Airport (15 nm SE)
KHFD - Hartford-Brainard Airport (16 nm NE)
 
Loc | Ops | Rwys | IFR | FBO | Links
Com | Nav | Svcs | Stats | Notes

Silver City Flying Club
 
Area around 4C3 (Yalesville Heliport)
 
Road maps at: MapQuest Bing Google
 
Aerial photo
WARNING: Photo may not be current or correct
Aerial photo of 4C3 (Yalesville Heliport)
Photo courtesy of AirOcean Aviation, LLC
Taken in October 2008
from a Schweizer 300 helicopter

Do you have a better or more recent aerial photo of Yalesville Heliport that you would like to share? If so, please send us your photo.

 
Sectional chart

 
Airport distance calculator
Flying to Yalesville Heliport? Find the distance to fly.

From to 4C3

Sunrise and sunset
Times for 19-Jun-2018
 Local
(UTC-4)
 Zulu
(UTC)
Morning civil twilight04:4408:44
Sunrise05:1809:18
Sunset20:2700:27
Evening civil twilight21:0101:01

Current date and time
Zulu (UTC)  19-Jun-2018 12:41:04
Local (UTC-4)  19-Jun-2018 08:41:04
 
METAR
KMMK 
2nm NW 
191153Z AUTO 34007KT 10SM BKN035 25/20 A2975 RMK AO2 SLP072 60000 T02500200 10250 20217 53019
KHVN 
14nm S 
191153Z 32006KT 10SM SCT022 26/22 A2975 RMK AO2 SLP073 60003 70014 T02560222 10256 20222 53017 $
KOXC 
14nm W 
191151Z 35010KT 10SM BKN021 23/21 A2979 RMK AO2 SLP094 60003 70005 T02280206 10233 20222 53016
KSNC 
15nm SE 
191215Z AUTO 36007G16KT 320V030 10SM SCT018 SCT025 BKN037 25/21 A2976 RMK AO2
KHFD 
16nm NE 
191206Z 02007KT 10SM BKN021 BKN028 BKN045 24/21 A2975 RMK AO2 T02390206
TAF
KBDR 
24nm SW 
191120Z 1912/2012 33008KT P6SM BKN040 FM191300 34010G15KT P6SM SCT040 FM191600 34011G17KT P6SM FEW050 FEW250 FM192300 34008KT P6SM SKC FM200500 03006KT P6SM FEW050 FEW250
KBDL 
27nm N 
191123Z 1912/2018 35006KT P6SM FEW025 SCT040 BKN120 FM201100 01003KT P6SM SCT200 FM201300 33003KT P6SM SCT200 FM201400 25004KT P6SM SCT200 FM201500 20005KT P6SM SCT200
NOTAMs
Click for the latest NOTAMs
NOTAMs are issued by the DoD/FAA and will open in a separate window not controlled by AirNav.

 

 
 

FBO, Fuel Providers, and Aircraft Ground Support

  
 Business Name 
 
 Contact 
 
 Services / Description 
 
Fuel Prices
 
Comments
  
 AirOcean Aviation, LLC
203-294-8800
[web site]
[email]
Airport management, Aviation fuel, Aircraft parking (ramp or tiedown), Hangars, Hangar leasing / sales, GPU / Power cart, Flight training, Aircraft rental, ...

More info about AirOcean Aviation, LLC
Phillips 66
100LL Jet A
FS $5.75 $5.00 
 Updated 19-Jun-2018
 
   write
FS=Full service
Update Fuel Prices
 

Would you like to see your business listed on this page?

 If your business provides an interesting product or service to pilots, flight crews, aircraft, or users of the Yalesville Heliport, you should consider listing it here.  To start the listing process, click on the button below
 
Add a business
 

Other Pages about Yalesville Heliport

Update a link
 
Copyright © AirNav, LLC. All rights reserved. Privacy Policy  Contact